Flag for Spain Past Weather in Santa Cruz de Tenerife, Canary Islands, Spain — Yesterday and Last 2 Weeks

Now
55 °F

Passing clouds.


Feels Like: 55 °F
Forecast: 67 / 74 °F
Wind: 5 mph from Northwest

Location: Tenerife / Los Rodeos

Current Time: May 26, 2016 at 1:52:09 AM

Latest Report: May 25, 2016 at 11:00 PM


Visibility: N/A

Pressure: 30.04 "Hg

Humidity: 100%

Dew Point: 55 °F

Location of Santa Cruz de TenerifeLocation

Past Weather in Santa Cruz de Tenerife — Graph

°F

Santa Cruz de Tenerife Temperature Yesterday

Maximum temperature yesterday: 64 °F (at 1:00 PM)
Minimum temperature yesterday: 55 °F (at 7:00 AM)
Average temperature yesterday: 60 °F

High & Low Weather Summary for the Past Weeks

 TemperatureHumidityPressure
High70 °F (May 24, 3:30 PM)100% (May 13, 4:00 AM)30.24 "Hg (May 13, 4:00 AM)
Low50 °F (May 12, 4:00 AM)49% (May 12, 11:00 AM)29.95 "Hg (May 11, 3:00 AM)
Average58 °F84%30.14 "Hg
* Reported May 10 11:00 PM — May 25 11:00 PM, Santa Cruz de Tenerife, Weather by CustomWeather, © 2016

Note: Actual official high and low records may vary slightly from our data, if they occured in-between our weather recording intervals... More about our weather records

Advertising

Santa Cruz de Tenerife Weather History for the Previous 24 Hours

Scroll right to see more
 ConditionsComfort  
Time TempWeatherWind HumidityBarometerVisibility
11:00 PM
Wed, May 25
55 °FPassing clouds.5 mph100%30.04 "HgN/A
10:30 PM57 °FPassing clouds.5 mph94%30.04 "HgN/A
10:00 PM57 °FPassing clouds.7 mph94%30.04 "HgN/A
9:30 PM57 °FScattered clouds.8 mph94%30.04 "HgN/A
9:00 PM59 °FBroken clouds.7 mph88%30.04 "HgN/A
8:30 PM59 °FBroken clouds.6 mph88%30.01 "HgN/A
8:00 PM59 °FBroken clouds.5 mph88%30.01 "HgN/A
7:30 PM61 °FBroken clouds.9 mph83%30.01 "HgN/A
7:00 PM61 °FBroken clouds.8 mph83%30.01 "HgN/A
6:30 PM63 °FBroken clouds.9 mph77%30.01 "HgN/A
6:00 PM63 °FScattered clouds.9 mph73%30.01 "HgN/A
5:30 PM63 °FScattered clouds.8 mph73%30.01 "HgN/A
5:00 PM63 °FBroken clouds.5 mph73%30.04 "HgN/A
4:30 PM63 °FBroken clouds.7 mph73%30.04 "HgN/A
4:00 PM63 °FBroken clouds.8 mph73%30.04 "HgN/A
3:30 PM61 °FBroken clouds.13 mph77%30.04 "HgN/A
3:00 PM63 °FBroken clouds.10 mph77%30.04 "HgN/A
2:30 PM63 °FBroken clouds.10 mph77%30.07 "HgN/A
2:00 PM63 °FBroken clouds.13 mph73%30.07 "HgN/A
1:30 PM63 °FBroken clouds.15 mph77%30.07 "HgN/A
1:00 PM64 °FBroken clouds.14 mph78%30.07 "HgN/A
12:30 PM61 °FBroken clouds.12 mph88%30.07 "HgN/A
12:00 PM59 °FBroken clouds.9 mph88%30.07 "HgN/A
11:30 AM59 °FBroken clouds.10 mph94%30.07 "HgN/A
11:00 AM59 °FDrizzle. Fog.10 mph88%30.07 "HgN/A
10:30 AM57 °FDrizzle. Broken clouds.12 mph94%30.07 "Hg6 mi
10:00 AM57 °FDrizzle. Broken clouds.12 mph94%30.07 "Hg6 mi
9:30 AM57 °FDrizzle. Broken clouds.10 mph94%30.07 "Hg6 mi
9:00 AM57 °FDrizzle. Broken clouds.10 mph94%30.07 "Hg5 mi
8:30 AM57 °FDrizzle. Broken clouds.12 mph94%30.07 "Hg5 mi
8:00 AM55 °FPartly cloudy.12 mph100%30.07 "Hg4 mi
7:30 AM55 °FPartly cloudy.8 mph100%30.07 "Hg4 mi
7:00 AM55 °FPartly cloudy.9 mph100%30.07 "Hg4 mi
Weather by CustomWeather, © 2016

See weather overviewHow to use our weather pages